Location: Artiguedieu
(43.5000°N, 0.5454°E)
Time: 19:19:00
(UTC+00:00)

Transit 2A - Pass Details

Date: 02 August 2021
Orbit: 594 x 964 km, 66.7° (Epoch: 28 September)

Event Time Altitude Azimuth Distance (km) Brightness Sun altitude
Rises 13:20:26 0° 336° (NNW) 3,206 9.1 59.5°
Reaches altitude 10° 13:23:05 10° 348° (NNW) 2,342 8.4 59.2°
Maximum altitude 13:27:41 27° 47° (NE) 1,540 7.6 58.7°
Drops below altitude 10° 13:32:38 10° 104° (ESE) 2,542 8.7 58.1°
Sets 13:35:37 0° 116° (ESE) 3,531 9.3 57.7°
